M/T Four Island — IBCA — position and weather

sailwx.info

Track history (hours):
 
Tides and Currents Weather Stations Pressure Air Temp Water Temp Dewpoint Dewpoint Depression Visibility Wind Speed Wind Dir Waves Ship Positions

M/T Four Island

Last reported at 2014-Jul-31 11:31 UTC. Time now 2014-Jul-31 11:35 UTC.
Position N 40°45' E 028°55'.

Length 233 m; draft 8.5 m.

Type: Ship. MMSI: 247008000.

Date/timePositionNaut miles runAvg speedWind from/ knotsBaromVisibWave heightAir tempDewpointWater temp
2014-Jul-31 11:31N 40°45' E 028°55'1 0.8
2014-Jul-31 10:32N 40°45' E 028°55'1 0.8
2014-Jul-31 09:33N 40°46' E 028°56'1 0.7
2014-Jul-31 08:33N 40°47' E 028°56'1 1.3
2014-Jul-31 07:33N 40°48' E 028°55'145 6.1
2014-Jul-30 07:33N 39°56' E 025°57'9 8.7
2014-Jul-30 06:32N 39°47' E 025°55'4 3.1
2014-Jul-30 05:16N 39°46' E 025°60'0 0.0
2014-Jul-29 16:31N 39°46' E 025°60'0 0.0
2014-Jul-29 15:31N 39°46' E 025°60'0 0.1
2014-Jul-29 14:32N 39°46' E 025°60'5 4.6
2014-Jul-29 13:31N 39°46' E 025°54'9 8.9
2014-Jul-29 12:27N 39°39' E 025°45'1111.3
2014-Jul-29 11:27N 39°30' E 025°37'2211.3
2014-Jul-29 09:30N 39°10' E 025°24'2311.6
2014-Jul-29 07:33N 38°50' E 025°11'3510.9
2014-Jul-29 04:18N 38°18' E 024°51'2311.7
2014-Jul-29 02:19N 37°57' E 024°38'1211.9
2014-Jul-29 01:18N 37°45' E 024°33'911.8
2014-Jul-29 00:33N 37°37' E 024°30'1211.6
2014-Jul-28 23:32N 37°28' E 024°21'1111.5
2014-Jul-28 22:33N 37°19' E 024°12'1111.2
2014-Jul-28 21:33N 37°10' E 024°03'1111.1
2014-Jul-28 20:33N 37°01' E 023°55'1211.6
2014-Jul-28 19:33N 36°52' E 023°46'1211.5
2014-Jul-28 18:33N 36°42' E 023°40'1211.8
2014-Jul-28 17:33N 36°31' E 023°33'1211.7
2014-Jul-28 16:33N 36°21' E 023°26'1311.5
2014-Jul-28 15:25N 36°10' E 023°18'2111.5
2014-Jul-28 13:33N 35°56' E 022°57'35911.6
2014-Jul-27 06:34N 35°60' E 015°34'1211.3
2014-Jul-27 05:29N 36°04' E 015°20'1211.3
2014-Jul-27 04:24N 36°09' E 015°06'1011.8
2014-Jul-27 03:34N 36°12' E 014°54'1212.3
2014-Jul-27 02:34N 36°17' E 014°40'1212.0
2014-Jul-27 01:33N 36°21' E 014°26'1311.9
2014-Jul-27 00:26N 36°25' E 014°10'1011.7
2014-Jul-26 23:34N 36°29' E 013°59'1211.9
2014-Jul-26 22:33N 36°33' E 013°44'1212.0
2014-Jul-26 21:33N 36°38' E 013°31'1212.0
2014-Jul-26 20:34N 36°42' E 013°17'1412.3
2014-Jul-26 19:24N 36°47' E 013°00'1112.0
2014-Jul-26 18:29N 36°51' E 012°48'1212.5
2014-Jul-26 17:33N 36°55' E 012°34'1212.3
2014-Jul-26 16:34N 36°60' E 012°20'8211.7
2014-Jul-26 09:33N 37°30' E 010°44'5112.5
2014-Jul-26 05:29N 37°34' E 009°40'1212.2
2014-Jul-26 04:32N 37°31' E 009°26'1212.1
2014-Jul-26 03:33N 37°27' E 009°12'1211.8
2014-Jul-26 02:33N 37°24' E 008°58'2311.7
2014-Jul-26 00:34N 37°16' E 008°30'2411.9
2014-Jul-25 22:33N 37°18' E 008°00'1312.1
2014-Jul-25 21:28N 37°21' E 007°44'2611.9
2014-Jul-25 19:18N 37°21' E 007°11'911.6
2014-Jul-25 18:33N 37°21' E 007°01'1211.5
2014-Jul-25 17:29N 37°20' E 006°45'1611.5
2014-Jul-25 16:06N 37°19' E 006°25'611.6
2014-Jul-25 15:33N 37°19' E 006°17'2812.0
2014-Jul-25 13:13N 37°17' E 005°42'3411.7
2014-Jul-25 10:18N 37°14' E 004°60'3312.0
2014-Jul-25 07:33N 37°12' E 004°18'7512.5
2014-Jul-25 01:32N 37°01' E 002°45'1412.6
2014-Jul-25 00:24N 36°58' E 002°27'1012.0
2014-Jul-24 23:33N 36°56' E 002°15'1212.2
2014-Jul-24 22:33N 36°54' E 001°60'1212.1
2014-Jul-24 21:34N 36°52' E 001°45'1312.6
2014-Jul-24 20:33N 36°50' E 001°29'1211.5
2014-Jul-24 19:33N 36°48' E 001°15'1211.6
2014-Jul-24 18:33N 36°45' E 001°01'1411.6
2014-Jul-24 17:23N 36°40' E 000°45'1011.8
2014-Jul-24 16:33N 36°37' E 000°33'1212.0
2014-Jul-24 15:33N 36°34' E 000°19'1212.0
2014-Jul-24 14:32N 36°30' E 000°05'1412.6
2014-Jul-24 13:26N 36°25' W 000°11'1112.9
2014-Jul-24 12:33N 36°22' W 000°25'1313.1
2014-Jul-24 11:34N 36°18' W 000°40'1312.9
2014-Jul-24 10:31N 36°14' W 000°56'1212.4
2014-Jul-24 09:33N 36°10' W 001°10'2611.7
2014-Jul-24 07:20N 36°02' W 001°41'2311.8
2014-Jul-24 05:22N 35°55' W 002°08'1312.2
2014-Jul-24 04:17N 35°51' W 002°23'14011.9
2014-Jul-23 16:31N 35°60' W 005°16'8 7.8
2014-Jul-23 15:28N 36°06' W 005°21'8 0.4
2014-Jul-22 16:29N 35°59' W 005°25'2712.1
2014-Jul-22 14:17N 35°54' W 005°58'912.1
2014-Jul-22 13:34N 35°53' W 006°08'1211.9
2014-Jul-22 12:33N 35°54' W 006°23'1211.6
2014-Jul-22 11:34N 35°52' W 006°37'1611.6
2014-Jul-22 10:12N 35°50' W 006°57'12 4.3
2014-Jul-22 07:25N 35°46' W 007°11'4210.9
2014-Jul-22 03:33N 35°44' W 008°03'1111.4
2014-Jul-22 02:33N 35°43' W 008°16'1111.4
2014-Jul-22 01:33N 35°42' W 008°30'1111.3
2014-Jul-22 00:32N 35°40' W 008°44'1111.2
2014-Jul-21 23:34N 35°39' W 008°58'1111.2
2014-Jul-21 22:34N 35°38' W 009°12'1111.1
2014-Jul-21 21:33N 35°37' W 009°25'1111.1
2014-Jul-21 20:33N 35°35' W 009°39'311.0
2014-Jul-21 20:18N 35°35' W 009°42'811.0
2014-Jul-21 19:33N 35°34' W 009°52'1111.2
2014-Jul-21 18:34N 35°33' W 010°06'1211.4
2014-Jul-21 17:33N 35°32' W 010°20'1111.3
2014-Jul-21 16:33N 35°30' W 010°34'1211.4
2014-Jul-21 15:32N 35°29' W 010°48'1511.4
2014-Jul-21 14:15N 35°27' W 011°06'3411.4
2014-Jul-21 11:17N 35°23' W 011°47'  
Track history (hours):
 
Tides and Currents Weather Stations Pressure Air Temp Water Temp Dewpoint Dewpoint Depression Visibility Wind Speed Wind Dir Waves Ship Positions

M/T Four Island

Last reported at 2014-Jul-31 11:31 UTC. Time now 2014-Jul-31 11:35 UTC.
Position N 40°45' E 028°55'.

Length 233 m; draft 8.5 m.

Type: Ship. MMSI: 247008000.

Date/timePositionNaut miles runAvg speedWind from/ knotsBaromVisibWave heightAir tempDewpointWater temp
2014-Jul-31 11:31N 40°45' E 028°55'1 0.8
2014-Jul-31 10:32N 40°45' E 028°55'1 0.8
2014-Jul-31 09:33N 40°46' E 028°56'1 0.7
2014-Jul-31 08:33N 40°47' E 028°56'1 1.3
2014-Jul-31 07:33N 40°48' E 028°55'145 6.1
2014-Jul-30 07:33N 39°56' E 025°57'9 8.7
2014-Jul-30 06:32N 39°47' E 025°55'4 3.1
2014-Jul-30 05:16N 39°46' E 025°60'0 0.0
2014-Jul-29 16:31N 39°46' E 025°60'0 0.0
2014-Jul-29 15:31N 39°46' E 025°60'0 0.1
2014-Jul-29 14:32N 39°46' E 025°60'5 4.6
2014-Jul-29 13:31N 39°46' E 025°54'9 8.9
2014-Jul-29 12:27N 39°39' E 025°45'1111.3
2014-Jul-29 11:27N 39°30' E 025°37'2211.3
2014-Jul-29 09:30N 39°10' E 025°24'2311.6
2014-Jul-29 07:33N 38°50' E 025°11'3510.9
2014-Jul-29 04:18N 38°18' E 024°51'2311.7
2014-Jul-29 02:19N 37°57' E 024°38'1211.9
2014-Jul-29 01:18N 37°45' E 024°33'911.8
2014-Jul-29 00:33N 37°37' E 024°30'1211.6
2014-Jul-28 23:32N 37°28' E 024°21'1111.5
2014-Jul-28 22:33N 37°19' E 024°12'1111.2
2014-Jul-28 21:33N 37°10' E 024°03'1111.1
2014-Jul-28 20:33N 37°01' E 023°55'1211.6
2014-Jul-28 19:33N 36°52' E 023°46'1211.5
2014-Jul-28 18:33N 36°42' E 023°40'1211.8
2014-Jul-28 17:33N 36°31' E 023°33'1211.7
2014-Jul-28 16:33N 36°21' E 023°26'1311.5
2014-Jul-28 15:25N 36°10' E 023°18'2111.5
2014-Jul-28 13:33N 35°56' E 022°57'35911.6
2014-Jul-27 06:34N 35°60' E 015°34'1211.3
2014-Jul-27 05:29N 36°04' E 015°20'1211.3
2014-Jul-27 04:24N 36°09' E 015°06'1011.8
2014-Jul-27 03:34N 36°12' E 014°54'1212.3
2014-Jul-27 02:34N 36°17' E 014°40'1212.0
2014-Jul-27 01:33N 36°21' E 014°26'1311.9
2014-Jul-27 00:26N 36°25' E 014°10'1011.7
2014-Jul-26 23:34N 36°29' E 013°59'1211.9
2014-Jul-26 22:33N 36°33' E 013°44'1212.0
2014-Jul-26 21:33N 36°38' E 013°31'1212.0
2014-Jul-26 20:34N 36°42' E 013°17'1412.3
2014-Jul-26 19:24N 36°47' E 013°00'1112.0
2014-Jul-26 18:29N 36°51' E 012°48'1212.5
2014-Jul-26 17:33N 36°55' E 012°34'1212.3
2014-Jul-26 16:34N 36°60' E 012°20'8211.7
2014-Jul-26 09:33N 37°30' E 010°44'5112.5
2014-Jul-26 05:29N 37°34' E 009°40'1212.2
2014-Jul-26 04:32N 37°31' E 009°26'1212.1
2014-Jul-26 03:33N 37°27' E 009°12'1211.8
2014-Jul-26 02:33N 37°24' E 008°58'2311.7
2014-Jul-26 00:34N 37°16' E 008°30'2411.9
2014-Jul-25 22:33N 37°18' E 008°00'1312.1
2014-Jul-25 21:28N 37°21' E 007°44'2611.9
2014-Jul-25 19:18N 37°21' E 007°11'911.6
2014-Jul-25 18:33N 37°21' E 007°01'1211.5
2014-Jul-25 17:29N 37°20' E 006°45'1611.5
2014-Jul-25 16:06N 37°19' E 006°25'611.6
2014-Jul-25 15:33N 37°19' E 006°17'2812.0
2014-Jul-25 13:13N 37°17' E 005°42'3411.7
2014-Jul-25 10:18N 37°14' E 004°60'3312.0
2014-Jul-25 07:33N 37°12' E 004°18'7512.5
2014-Jul-25 01:32N 37°01' E 002°45'1412.6
2014-Jul-25 00:24N 36°58' E 002°27'1012.0
2014-Jul-24 23:33N 36°56' E 002°15'1212.2
2014-Jul-24 22:33N 36°54' E 001°60'1212.1
2014-Jul-24 21:34N 36°52' E 001°45'1312.6
2014-Jul-24 20:33N 36°50' E 001°29'1211.5
2014-Jul-24 19:33N 36°48' E 001°15'1211.6
2014-Jul-24 18:33N 36°45' E 001°01'1411.6
2014-Jul-24 17:23N 36°40' E 000°45'1011.8
2014-Jul-24 16:33N 36°37' E 000°33'1212.0
2014-Jul-24 15:33N 36°34' E 000°19'1212.0
2014-Jul-24 14:32N 36°30' E 000°05'1412.6
2014-Jul-24 13:26N 36°25' W 000°11'1112.9
2014-Jul-24 12:33N 36°22' W 000°25'1313.1
2014-Jul-24 11:34N 36°18' W 000°40'1312.9
2014-Jul-24 10:31N 36°14' W 000°56'1212.4
2014-Jul-24 09:33N 36°10' W 001°10'2611.7
2014-Jul-24 07:20N 36°02' W 001°41'2311.8
2014-Jul-24 05:22N 35°55' W 002°08'1312.2
2014-Jul-24 04:17N 35°51' W 002°23'14011.9
2014-Jul-23 16:31N 35°60' W 005°16'8 7.8
2014-Jul-23 15:28N 36°06' W 005°21'8 0.4
2014-Jul-22 16:29N 35°59' W 005°25'2712.1
2014-Jul-22 14:17N 35°54' W 005°58'912.1
2014-Jul-22 13:34N 35°53' W 006°08'1211.9
2014-Jul-22 12:33N 35°54' W 006°23'1211.6
2014-Jul-22 11:34N 35°52' W 006°37'1611.6
2014-Jul-22 10:12N 35°50' W 006°57'12 4.3
2014-Jul-22 07:25N 35°46' W 007°11'4210.9
2014-Jul-22 03:33N 35°44' W 008°03'1111.4
2014-Jul-22 02:33N 35°43' W 008°16'1111.4
2014-Jul-22 01:33N 35°42' W 008°30'1111.3
2014-Jul-22 00:32N 35°40' W 008°44'1111.2
2014-Jul-21 23:34N 35°39' W 008°58'1111.2
2014-Jul-21 22:34N 35°38' W 009°12'1111.1
2014-Jul-21 21:33N 35°37' W 009°25'1111.1
2014-Jul-21 20:33N 35°35' W 009°39'311.0
2014-Jul-21 20:18N 35°35' W 009°42'811.0
2014-Jul-21 19:33N 35°34' W 009°52'1111.2
2014-Jul-21 18:34N 35°33' W 010°06'1211.4
2014-Jul-21 17:33N 35°32' W 010°20'1111.3
2014-Jul-21 16:33N 35°30' W 010°34'1211.4
2014-Jul-21 15:32N 35°29' W 010°48'1511.4
2014-Jul-21 14:15N 35°27' W 011°06'3411.4
2014-Jul-21 11:17N 35°23' W 011°47'  

Dump ship's entire track history